SWA4824 KBNA-KCLE

Flight info

Callsign SWA4824
Flight time 1h 9m
Altitude 39000
Route KRSTA4 OLSIE IIU DRUGA ROKNN4
Aircraft B737/M-SDE2E3FGHIRWXY/LB1

Departure

Time 2026-05-05 01:15
Airport Nashville International Airport (KBNA)

Arrival

Time 2026-05-05 02:25
Airport Cleveland Hopkins International Airport (KCLE)
Time Latitude Longitude Altitude Speed Heading
2026-05-05 01:01 36.12829 -86.66889 568 ft 0 kts 255°
2026-05-05 01:08 36.12832 -86.66871 568 ft 2 kts 255°
2026-05-05 01:09 36.12837 -86.66851 568 ft 2 kts 255°
2026-05-05 01:09 36.12841 -86.66832 571 ft 2 kts 236°
2026-05-05 01:09 36.12852 -86.66820 569 ft 1 kts 177°
2026-05-05 01:09 36.12856 -86.66820 572 ft 0 kts 172°
2026-05-05 01:10 36.12835 -86.66812 570 ft 11 kts 160°
2026-05-05 01:11 36.12746 -86.66796 568 ft 14 kts 186°
2026-05-05 01:11 36.12653 -86.66837 570 ft 14 kts 209°
2026-05-05 01:11 36.12562 -86.66901 571 ft 18 kts 210°
2026-05-05 01:11 36.12431 -86.66932 573 ft 22 kts 141°
2026-05-05 01:12 36.12344 -86.66786 570 ft 21 kts 108°
2026-05-05 01:12 36.12299 -86.66613 569 ft 22 kts 108°
2026-05-05 01:12 36.12355 -86.66477 566 ft 21 kts 17°
2026-05-05 01:12 36.12493 -86.66422 567 ft 21 kts 18°
2026-05-05 01:13 36.12627 -86.66369 567 ft 20 kts 18°
2026-05-05 01:13 36.12757 -86.66317 563 ft 19 kts 18°
2026-05-05 01:13 36.12882 -86.66266 564 ft 19 kts 18°
2026-05-05 01:13 36.13004 -86.66218 557 ft 19 kts 18°
2026-05-05 01:14 36.13145 -86.66162 563 ft 25 kts 18°
2026-05-05 01:14 36.13321 -86.66092 550 ft 23 kts 18°
2026-05-05 01:14 36.13369 -86.66005 553 ft 11 kts 108°
2026-05-05 01:14 36.13318 -86.65952 549 ft 11 kts 188°
2026-05-05 01:15 36.13185 -86.66004 551 ft 54 kts 198°
2026-05-05 01:15 36.12518 -86.66272 578 ft 143 kts 198°
2026-05-05 01:15 36.11474 -86.66686 1332 ft 168 kts 199°
2026-05-05 01:15 36.10297 -86.67132 2420 ft 170 kts 202°
2026-05-05 01:16 36.09381 -86.68070 3415 ft 187 kts 240°
2026-05-05 01:16 36.08870 -86.69710 3856 ft 225 kts 246°
2026-05-05 01:16 36.08277 -86.71633 4664 ft 244 kts 245°
2026-05-05 01:16 36.07644 -86.73596 5939 ft 247 kts 245°
2026-05-05 01:17 36.06994 -86.75592 6708 ft 252 kts 249°
2026-05-05 01:17 36.06752 -86.77747 6980 ft 259 kts 269°
2026-05-05 01:17 36.07084 -86.79963 7006 ft 266 kts 280°
2026-05-05 01:17 36.07552 -86.82180 6958 ft 265 kts 280°
2026-05-05 01:18 36.08126 -86.84343 6952 ft 269 kts 294°
2026-05-05 01:18 36.09367 -86.86111 6957 ft 279 kts 319°
2026-05-05 01:18 36.11177 -86.87066 7032 ft 294 kts 347°
2026-05-05 01:18 36.13250 -86.86934 7962 ft 302 kts
2026-05-05 01:19 36.15296 -86.86373 9310 ft 300 kts 10°
2026-05-05 01:19 36.17338 -86.85752 10405 ft 306 kts 10°
2026-05-05 01:19 36.19477 -86.85100 10916 ft 332 kts 10°
2026-05-05 01:19 36.21816 -86.84398 11401 ft 354 kts 10°
2026-05-05 01:20 36.24224 -86.83680 12408 ft 358 kts 10°
2026-05-05 01:20 36.26658 -86.82962 13456 ft 361 kts
2026-05-05 01:20 36.29115 -86.82243 14435 ft 365 kts
2026-05-05 01:20 36.31594 -86.81520 15393 ft 367 kts 10°
2026-05-05 01:21 36.33218 -86.80878 16012 ft 375 kts 21°
2026-05-05 01:21 36.35394 -86.79042 16943 ft 386 kts 41°
2026-05-05 01:21 36.37236 -86.76599 17916 ft 390 kts 45°
2026-05-05 01:21 36.39042 -86.74047 18717 ft 396 kts 46°
2026-05-05 01:22 36.40858 -86.71449 19477 ft 402 kts 46°
2026-05-05 01:22 36.42706 -86.68820 20247 ft 406 kts 46°
2026-05-05 01:22 36.44583 -86.66175 21020 ft 410 kts 45°
2026-05-05 01:22 36.46489 -86.63510 21773 ft 415 kts 45°
2026-05-05 01:23 36.48421 -86.60818 22504 ft 420 kts 45°
2026-05-05 01:23 36.50379 -86.58093 23237 ft 425 kts 45°
2026-05-05 01:23 36.52355 -86.55342 23878 ft 429 kts 45°
2026-05-05 01:23 36.54353 -86.52558 24481 ft 433 kts 45°
2026-05-05 01:24 36.56366 -86.49750 25087 ft 436 kts 45°
2026-05-05 01:24 36.58591 -86.47209 25632 ft 434 kts 29°
2026-05-05 01:24 36.61272 -86.45544 26234 ft 430 kts 18°
2026-05-05 01:24 36.64055 -86.44183 26844 ft 431 kts 16°
2026-05-05 01:25 36.66870 -86.42832 27383 ft 436 kts 17°
2026-05-05 01:25 36.69697 -86.41427 27889 ft 440 kts 17°
2026-05-05 01:25 36.72545 -86.39973 28413 ft 444 kts 18°
2026-05-05 01:25 36.75372 -86.38361 28932 ft 450 kts 21°
2026-05-05 01:26 36.78166 -86.36575 29438 ft 454 kts 23°
2026-05-05 01:26 36.80967 -86.34710 29902 ft 458 kts 23°
2026-05-05 01:26 36.83786 -86.32820 30291 ft 461 kts 23°
2026-05-05 01:26 36.86625 -86.30932 30699 ft 463 kts 22°
2026-05-05 01:27 36.89481 -86.29054 31098 ft 465 kts 22°
2026-05-05 01:27 36.92360 -86.27176 31466 ft 467 kts 22°
2026-05-05 01:27 36.95252 -86.25299 31840 ft 469 kts 22°
2026-05-05 01:27 36.98150 -86.23419 32296 ft 468 kts 21°
2026-05-05 01:28 37.01035 -86.21546 32833 ft 466 kts 21°
2026-05-05 01:28 37.03901 -86.19684 33372 ft 463 kts 21°
2026-05-05 01:28 37.06757 -86.17826 33864 ft 462 kts 21°
2026-05-05 01:28 37.09605 -86.15973 34247 ft 461 kts 21°
2026-05-05 01:29 37.12453 -86.14118 34611 ft 461 kts 21°
2026-05-05 01:29 37.15291 -86.12267 35015 ft 459 kts 21°
2026-05-05 01:29 37.18120 -86.10421 35397 ft 458 kts 21°
2026-05-05 01:29 37.20939 -86.08580 35754 ft 457 kts 21°
2026-05-05 01:30 37.23761 -86.06747 36093 ft 456 kts 20°
2026-05-05 01:30 37.26620 -86.05039 36428 ft 454 kts 18°
2026-05-05 01:30 37.29497 -86.03426 36788 ft 452 kts 17°
2026-05-05 01:30 37.32370 -86.01855 37115 ft 451 kts 17°
2026-05-05 01:31 37.35249 -86.00282 37415 ft 451 kts 17°
2026-05-05 01:31 37.38126 -85.98699 37727 ft 451 kts 17°
2026-05-05 01:31 37.40994 -85.97107 38040 ft 451 kts 18°
2026-05-05 01:31 37.43860 -85.95503 38339 ft 451 kts 18°
2026-05-05 01:32 37.46724 -85.93892 38580 ft 451 kts 18°
2026-05-05 01:32 37.49593 -85.92275 38784 ft 452 kts 18°
2026-05-05 01:32 37.55358 -85.89018 38835 ft 454 kts 18°
2026-05-05 01:33 37.61117 -85.85757 38837 ft 453 kts 18°
2026-05-05 01:33 37.66864 -85.82498 38837 ft 452 kts 18°
2026-05-05 01:34 37.72599 -85.79243 38832 ft 452 kts 18°
2026-05-05 01:34 37.78330 -85.75985 38840 ft 452 kts 18°
2026-05-05 01:35 37.84062 -85.72721 38827 ft 452 kts 18°
2026-05-05 01:35 37.89805 -85.69444 38822 ft 453 kts 19°
2026-05-05 01:36 37.95560 -85.66154 38824 ft 454 kts 19°
2026-05-05 01:36 38.01327 -85.62852 38813 ft 456 kts 19°
2026-05-05 01:37 38.07111 -85.59534 38819 ft 457 kts 19°
2026-05-05 01:37 38.12698 -85.55594 38809 ft 466 kts 31°
2026-05-05 01:38 38.17854 -85.50576 38816 ft 468 kts 33°
2026-05-05 01:38 38.22973 -85.45470 38815 ft 468 kts 33°
2026-05-05 01:39 38.28116 -85.40399 38814 ft 467 kts 33°
2026-05-05 01:39 38.33237 -85.35390 38819 ft 467 kts 33°
2026-05-05 01:40 38.38421 -85.30327 38824 ft 466 kts 33°
2026-05-05 01:40 38.43567 -85.25291 38825 ft 466 kts 33°
2026-05-05 01:41 38.48669 -85.20287 38826 ft 465 kts 33°
2026-05-05 01:41 38.53801 -85.15243 38820 ft 465 kts 33°
2026-05-05 01:42 38.58924 -85.10198 38820 ft 465 kts 33°
2026-05-05 01:42 38.64041 -85.05150 38824 ft 465 kts 33°
2026-05-05 01:43 38.69157 -85.00094 38821 ft 465 kts 33°
2026-05-05 01:43 38.74269 -84.95032 38817 ft 464 kts 33°
2026-05-05 01:44 38.79378 -84.89964 38820 ft 464 kts 33°
2026-05-05 01:44 38.84481 -84.84892 38807 ft 464 kts 33°
2026-05-05 01:45 38.89588 -84.79807 38796 ft 464 kts 33°
2026-05-05 01:45 38.94689 -84.74718 38796 ft 465 kts 33°
2026-05-05 01:46 38.99792 -84.69618 38797 ft 465 kts 33°
2026-05-05 01:46 39.04892 -84.64511 38802 ft 465 kts 34°
2026-05-05 01:47 39.09998 -84.59389 38792 ft 465 kts 34°
2026-05-05 01:47 39.15096 -84.54265 38795 ft 465 kts 34°
2026-05-05 01:48 39.20193 -84.49132 38797 ft 465 kts 34°
2026-05-05 01:48 39.25291 -84.43989 38793 ft 465 kts 34°
2026-05-05 01:49 39.30388 -84.38835 38790 ft 466 kts 34°
2026-05-05 01:49 39.35486 -84.33672 38790 ft 466 kts 34°
2026-05-05 01:50 39.40592 -84.28490 38801 ft 466 kts 34°
2026-05-05 01:50 39.45695 -84.23302 38780 ft 467 kts 34°
2026-05-05 01:51 39.50800 -84.18102 38779 ft 467 kts 35°
2026-05-05 01:51 39.55905 -84.12890 38776 ft 468 kts 35°
2026-05-05 01:52 39.61017 -84.07663 38778 ft 468 kts 35°
2026-05-05 01:52 39.66123 -84.02431 38781 ft 468 kts 35°
2026-05-05 01:53 39.71200 -83.97143 38777 ft 469 kts 37°
2026-05-05 01:53 39.76166 -83.91640 38778 ft 469 kts 38°
2026-05-05 01:54 39.81106 -83.86107 38766 ft 468 kts 38°
2026-05-05 01:54 39.86054 -83.80595 38772 ft 468 kts 37°
2026-05-05 01:55 39.91005 -83.75092 38779 ft 468 kts 37°
2026-05-05 01:55 39.95967 -83.69571 38431 ft 474 kts 37°
2026-05-05 01:56 39.98477 -83.66775 37766 ft 474 kts 37°
2026-05-05 01:56 40.00974 -83.63985 37093 ft 471 kts 37°
2026-05-05 01:56 40.03461 -83.61204 36399 ft 469 kts 37°
2026-05-05 01:56 40.05933 -83.58438 35689 ft 468 kts 37°
2026-05-05 01:57 40.08405 -83.55670 34895 ft 468 kts 37°
2026-05-05 01:57 40.10876 -83.52902 34078 ft 469 kts 37°
2026-05-05 01:57 40.13353 -83.50124 33150 ft 470 kts 37°
2026-05-05 01:57 40.15838 -83.47334 32175 ft 471 kts 37°
2026-05-05 01:58 40.18313 -83.44550 31545 ft 465 kts 37°
2026-05-05 01:58 40.20703 -83.41731 30936 ft 461 kts 39°
2026-05-05 01:58 40.23012 -83.38850 30308 ft 457 kts 40°
2026-05-05 01:58 40.25280 -83.35962 29654 ft 453 kts 40°
2026-05-05 01:59 40.27525 -83.33101 28923 ft 448 kts 41°
2026-05-05 01:59 40.29749 -83.30282 28271 ft 442 kts 40°
2026-05-05 01:59 40.31950 -83.27508 27617 ft 437 kts 40°
2026-05-05 01:59 40.34137 -83.24763 26953 ft 433 kts 40°
2026-05-05 02:00 40.36301 -83.22050 26311 ft 428 kts 41°
2026-05-05 02:00 40.38443 -83.19364 25677 ft 425 kts 41°
2026-05-05 02:00 40.40569 -83.16695 25048 ft 421 kts 41°
2026-05-05 02:00 40.42679 -83.14044 24423 ft 418 kts 41°
2026-05-05 02:01 40.44771 -83.11413 23777 ft 416 kts 41°
2026-05-05 02:01 40.46855 -83.08789 23090 ft 414 kts 41°
2026-05-05 02:01 40.48916 -83.06190 22707 ft 403 kts 41°
2026-05-05 02:01 40.50919 -83.03672 22415 ft 396 kts 41°
2026-05-05 02:02 40.52918 -83.01171 22155 ft 400 kts 41°
2026-05-05 02:02 40.54956 -82.98626 21901 ft 407 kts 41°
2026-05-05 02:02 40.57010 -82.96057 21619 ft 407 kts 41°
2026-05-05 02:02 40.59026 -82.93528 21340 ft 404 kts 41°
2026-05-05 02:03 40.61082 -82.90946 21065 ft 402 kts 41°
2026-05-05 02:03 40.63097 -82.88412 20797 ft 400 kts 41°
2026-05-05 02:03 40.65081 -82.85916 20537 ft 399 kts 41°
2026-05-05 02:03 40.67088 -82.83387 20271 ft 399 kts 41°
2026-05-05 02:04 40.69089 -82.80865 20005 ft 398 kts 41°
2026-05-05 02:04 40.71091 -82.78339 19745 ft 398 kts 41°
2026-05-05 02:04 40.73093 -82.75811 19487 ft 398 kts 41°
2026-05-05 02:04 40.75088 -82.73290 19226 ft 397 kts 41°
2026-05-05 02:05 40.76435 -82.71586 19035 ft 397 kts 41°
2026-05-05 02:05 40.78426 -82.69066 18781 ft 396 kts 41°
2026-05-05 02:05 40.80412 -82.66550 18516 ft 396 kts 40°
2026-05-05 02:05 40.82394 -82.64036 18255 ft 395 kts 40°
2026-05-05 02:06 40.84371 -82.61526 17979 ft 393 kts 40°
2026-05-05 02:06 40.86340 -82.59025 17686 ft 392 kts 40°
2026-05-05 02:06 40.88282 -82.56555 17612 ft 385 kts 40°
2026-05-05 02:06 40.90206 -82.54107 17389 ft 383 kts 40°
2026-05-05 02:07 40.92127 -82.51662 17137 ft 384 kts 40°
2026-05-05 02:07 40.94056 -82.49206 16758 ft 387 kts 40°
2026-05-05 02:07 40.96008 -82.46721 16267 ft 391 kts 40°
2026-05-05 02:07 40.97935 -82.44261 15789 ft 389 kts 40°
2026-05-05 02:08 40.99889 -82.41764 15302 ft 382 kts 40°
2026-05-05 02:08 41.01762 -82.39370 14844 ft 377 kts 40°
2026-05-05 02:08 41.03637 -82.36972 14392 ft 374 kts 40°
2026-05-05 02:08 41.05509 -82.34575 13969 ft 373 kts 41°
2026-05-05 02:09 41.07342 -82.32180 13679 ft 368 kts 41°
2026-05-05 02:09 41.09150 -82.29791 13344 ft 367 kts 41°
2026-05-05 02:09 41.10959 -82.27395 13026 ft 369 kts 41°
2026-05-05 02:09 41.12782 -82.24980 12711 ft 372 kts 41°
2026-05-05 02:10 41.14615 -82.22552 12408 ft 372 kts 41°
2026-05-05 02:10 41.16443 -82.20130 12100 ft 371 kts 41°
2026-05-05 02:10 41.18267 -82.17712 11796 ft 370 kts 41°
2026-05-05 02:10 41.20090 -82.15295 11494 ft 370 kts 41°
2026-05-05 02:11 41.21906 -82.12886 11199 ft 369 kts 41°
2026-05-05 02:11 41.23721 -82.10476 10900 ft 368 kts 41°
2026-05-05 02:11 41.25501 -82.08109 10586 ft 354 kts 41°
2026-05-05 02:11 41.27197 -82.05848 10297 ft 336 kts 41°
2026-05-05 02:12 41.28828 -82.03693 10048 ft 327 kts 38°
2026-05-05 02:12 41.32615 -82.00650 9527 ft 316 kts 21°
2026-05-05 02:12 41.34576 -81.99318 9213 ft 316 kts 21°
2026-05-05 02:13 41.36531 -81.97983 8936 ft 316 kts 21°
2026-05-05 02:13 41.38478 -81.96635 8665 ft 315 kts 21°
2026-05-05 02:13 41.40415 -81.95281 8387 ft 314 kts 21°
2026-05-05 02:13 41.42347 -81.93922 8122 ft 314 kts 22°
2026-05-05 02:14 41.44254 -81.92574 7852 ft 307 kts 21°
2026-05-05 02:14 41.46114 -81.91254 7579 ft 296 kts 21°
2026-05-05 02:14 41.47891 -81.89991 7320 ft 283 kts 21°
2026-05-05 02:14 41.49595 -81.88780 7101 ft 272 kts 21°
2026-05-05 02:15 41.51219 -81.87547 7007 ft 270 kts 32°
2026-05-05 02:15 41.52591 -81.85850 7012 ft 268 kts 40°
2026-05-05 02:15 41.53887 -81.84064 7001 ft 268 kts 42°
2026-05-05 02:15 41.55163 -81.82234 7007 ft 271 kts 43°
2026-05-05 02:16 41.56449 -81.80365 7002 ft 274 kts 43°
2026-05-05 02:16 41.57747 -81.78472 6670 ft 281 kts 43°
2026-05-05 02:16 41.59070 -81.76548 6208 ft 281 kts 43°
2026-05-05 02:16 41.60397 -81.74621 5700 ft 282 kts 44°
2026-05-05 02:17 41.61610 -81.72549 5179 ft 286 kts 62°
2026-05-05 02:17 41.62107 -81.70006 4684 ft 283 kts 93°
2026-05-05 02:17 41.61820 -81.67452 4208 ft 275 kts 110°
2026-05-05 02:17 41.61346 -81.64981 3711 ft 274 kts 111°
2026-05-05 02:18 41.60570 -81.62747 3226 ft 257 kts 140°
2026-05-05 02:18 41.59231 -81.61463 3060 ft 223 kts 172°
2026-05-05 02:18 41.57803 -81.61178 3002 ft 196 kts 198°
2026-05-05 02:18 41.56695 -81.61969 3010 ft 179 kts 224°
2026-05-05 02:19 41.55745 -81.63048 3004 ft 180 kts 225°
2026-05-05 02:19 41.54809 -81.64177 2989 ft 183 kts 226°
2026-05-05 02:19 41.53905 -81.65373 2991 ft 183 kts 230°
2026-05-05 02:19 41.53056 -81.66640 2998 ft 184 kts 231°
2026-05-05 02:20 41.52225 -81.67939 3000 ft 185 kts 232°
2026-05-05 02:20 41.51393 -81.69259 2986 ft 186 kts 231°
2026-05-05 02:20 41.50570 -81.70565 2977 ft 179 kts 232°
2026-05-05 02:20 41.49799 -81.71791 2969 ft 165 kts 232°
2026-05-05 02:21 41.49098 -81.72903 2969 ft 147 kts 233°
2026-05-05 02:21 41.48457 -81.73929 2826 ft 139 kts 232°
2026-05-05 02:21 41.47869 -81.74864 2661 ft 126 kts 232°
2026-05-05 02:21 41.47321 -81.75735 2498 ft 120 kts 231°
2026-05-05 02:22 41.46789 -81.76576 2372 ft 120 kts 231°
2026-05-05 02:22 41.46259 -81.77415 2233 ft 113 kts 231°
2026-05-05 02:22 41.45750 -81.78221 2071 ft 114 kts 232°
2026-05-05 02:22 41.45237 -81.79036 1910 ft 110 kts 231°
2026-05-05 02:23 41.44761 -81.79789 1751 ft 101 kts 231°
2026-05-05 02:23 41.44333 -81.80465 1643 ft 96 kts 231°
2026-05-05 02:23 41.43902 -81.81151 1514 ft 97 kts 230°
2026-05-05 02:23 41.43449 -81.81869 1393 ft 106 kts 229°
2026-05-05 02:24 41.42960 -81.82632 1238 ft 109 kts 233°
2026-05-05 02:24 41.42494 -81.83392 1069 ft 104 kts 230°
2026-05-05 02:24 41.42036 -81.84118 937 ft 109 kts 230°
2026-05-05 02:24 41.41535 -81.84907 802 ft 112 kts 229°
2026-05-05 02:25 41.41097 -81.85594 783 ft 73 kts 230°
2026-05-05 02:25 41.40900 -81.85909 784 ft 31 kts 230°
2026-05-05 02:25 41.40757 -81.86135 786 ft 33 kts 229°
2026-05-05 02:25 41.40593 -81.86255 784 ft 25 kts 175°
2026-05-05 02:26 41.40465 -81.86139 784 ft 23 kts 139°
2026-05-05 02:26 41.40349 -81.86012 784 ft 15 kts 139°
2026-05-05 02:26 41.40300 -81.85952 782 ft 0 kts 126°
2026-05-05 02:27 41.40314 -81.85903 782 ft 18 kts 49°
2026-05-05 02:27 41.40416 -81.85741 783 ft 26 kts 50°
2026-05-05 02:27 41.40541 -81.85545 784 ft 29 kts 50°
2026-05-05 02:27 41.40652 -81.85337 784 ft 27 kts 79°
2026-05-05 02:28 41.40644 -81.85098 784 ft 25 kts 93°
2026-05-05 02:28 41.40634 -81.84877 784 ft 23 kts 93°
2026-05-05 02:28 41.40626 -81.84670 784 ft 22 kts 94°
2026-05-05 02:28 41.40625 -81.84467 784 ft 22 kts 62°
2026-05-05 02:29 41.40766 -81.84433 784 ft 21 kts
2026-05-05 02:29 41.40919 -81.84435 784 ft 23 kts 359°
2026-05-05 02:29 41.41054 -81.84369 786 ft 16 kts 41°
2026-05-05 02:29 41.41120 -81.84280 786 ft 8 kts 49°
2026-05-05 02:30 41.41134 -81.84231 786 ft 4 kts 92°
2026-05-05 02:30 41.41134 -81.84226 786 ft 0 kts 92°